Weather History for KLLQ - January, 2014

Change the Weather History Date:

Sunday, January 5, 2014

  Actual Average Record
Temperature  
Mean Temperature 40 °F -  
Max Temperature 55 °F 50 °F 75 °F (2005)
Min Temperature 23 °F 29 °F 12 °F (1959)
Degree Days  
Heating Degree Days 26    
Moisture  
Dew Point 37 °F    
Average Humidity 78    
Maximum Humidity 94    
Minimum Humidity 56    
Precipitation  
Precipitation 0.16 in - - ()
Sea Level Pressure  
Sea Level Pressure 29.95 in    
Wind  
Wind Speed 12 mph (WSW)    
Max Wind Speed 21 mph    
Max Gust Speed 29 mph    
Visibility 8 miles    
Events Rain    
Averages and records for this station are not official NWS values.
T = Trace of Precipitation, MM = Missing Value Source: NWS Daily Summary

Daily Weather History Graph

Daily Weather History Graph

Search for Another Location

Airport or City:

Trip Planner

Search our weather history database for the weather conditions in past years. The results will help you decide how hot, cold, wet, or windy it might be!

Date:

Astronomy

Jan. 05, 2014 Rise Set
Actual Time 7:12 AM CST 5:13 PM CST
Civil Twilight 6:44 AM CST 5:40 PM CST
Nautical Twilight 6:13 AM CST 6:11 PM CST
Astronomical Twilight 5:43 AM CST 6:41 PM CST
Moon 10:08 AM CST (1/5) 10:24 PM CST (1/5)
Length of Visible Light 10h 55m
Length of Day
10h 00m
Waxing Crescent, 25% of the Moon is Illuminated
Jan 5
Waxing Crescent
Jan 7
First Quarter
Jan 15
Full
Jan 23
Last Quarter
Jan 30
New

Hourly Weather History & Observations

Time (CST) Temp. Windchill Dew Point Humidity Pressure Visibility Wind Dir Wind Speed Gust Speed Precip Events Conditions
12:53 AM 53.1 °F - 43.0 °F 69% 29.92 in 10.0 mi SSE 11.5 mph 17.3 mph N/A   Overcast
1:53 AM 53.1 °F - 43.0 °F 69% 29.91 in 10.0 mi SSE 6.9 mph - N/A   Overcast
2:53 AM 52.0 °F - 43.0 °F 71% 29.88 in 10.0 mi SSE 10.4 mph - N/A   Overcast
3:53 AM 52.0 °F - 44.1 °F 74% 29.87 in 10.0 mi SSE 10.4 mph 17.3 mph N/A   Overcast
4:53 AM 52.0 °F - 45.0 °F 77% 29.84 in 10.0 mi South 9.2 mph - N/A   Overcast
5:53 AM 53.1 °F - 46.0 °F 77% 29.82 in 10.0 mi South 11.5 mph - N/A   Overcast
6:53 AM 53.1 °F - 46.0 °F 77% 29.82 in 10.0 mi South 9.2 mph - 0.00 in   Overcast
7:53 AM 53.1 °F - 48.0 °F 83% 29.81 in 10.0 mi South 10.4 mph 17.3 mph 0.00 in   Overcast
8:53 AM 54.0 °F - 51.1 °F 90% 29.80 in 10.0 mi South 9.2 mph - 0.10 in Rain Light Rain
9:28 AM 55.4 °F - 51.8 °F 88% 29.79 in 10.0 mi South 9.2 mph 18.4 mph 0.00 in Rain Light Rain
9:43 AM 55.4 °F - 51.8 °F 88% 29.79 in 5.0 mi South 13.8 mph 20.7 mph 0.01 in Rain Light Rain
9:50 AM 55.4 °F - 51.8 °F 88% 29.78 in 4.0 mi South 12.7 mph 23.0 mph 0.02 in Rain Light Rain
9:53 AM 55.0 °F - 52.0 °F 89% 29.78 in 6.0 mi South 10.4 mph 23.0 mph 0.02 in Rain Light Rain
10:33 AM 55.4 °F - 51.8 °F 88% 29.80 in 3.0 mi SW 12.7 mph - 0.01 in Rain Light Rain
10:43 AM 55.4 °F - 53.6 °F 94% 29.80 in 2.5 mi SW 12.7 mph 20.7 mph 0.02 in Rain Light Rain
10:53 AM 55.9 °F - 53.1 °F 90% 29.80 in 2.0 mi SW 16.1 mph 23.0 mph 0.02 in Rain Light Rain
11:26 AM 55.4 °F - 51.8 °F 88% 29.80 in 4.0 mi WSW 11.5 mph 20.7 mph 0.01 in Rain Light Rain
11:53 AM 52.0 °F - 48.9 °F 89% 29.81 in 4.0 mi West 15.0 mph 28.8 mph 0.02 in Rain Light Rain
12:31 PM 46.4 °F 39.8 °F 44.6 °F 93% 29.83 in 8.0 mi WNW 16.1 mph 28.8 mph 0.00 in Rain Light Rain
12:53 PM 42.1 °F 33.9 °F 39.9 °F 92% 29.85 in 10.0 mi WNW 17.3 mph 27.6 mph 0.00 in Rain Light Rain
1:51 PM 39.2 °F 30.2 °F 35.6 °F 87% 29.89 in 10.0 mi WNW 17.3 mph 24.2 mph 0.00 in   Overcast
1:53 PM 39.0 °F 30.3 °F 35.1 °F 86% 29.89 in 10.0 mi West 16.1 mph 24.2 mph 0.00 in   Overcast
2:01 PM 39.2 °F 31.2 °F 35.6 °F 87% 29.89 in 10.0 mi WNW 13.8 mph 23.0 mph N/A   Overcast
2:53 PM 37.0 °F 29.8 °F 32.0 °F 82% 29.94 in 10.0 mi WNW 10.4 mph 17.3 mph N/A   Overcast
3:10 PM 35.6 °F 24.5 °F 30.2 °F 81% 29.96 in 10.0 mi WNW 20.7 mph 27.6 mph N/A   Overcast
3:53 PM 35.1 °F 25.9 °F 27.0 °F 72% 30.01 in 10.0 mi WNW 13.8 mph 20.7 mph N/A   Overcast
4:53 PM 32.0 °F 20.8 °F 24.1 °F 73% 30.07 in 10.0 mi WNW 17.3 mph 26.5 mph N/A   Overcast
5:53 PM 30.9 °F 21.2 °F 21.0 °F 67% 30.13 in 10.0 mi NW 12.7 mph 20.7 mph N/A   Overcast
6:53 PM 30.0 °F 20.0 °F 19.0 °F 64% 30.18 in 10.0 mi NW 12.7 mph 24.2 mph N/A   Overcast
7:29 PM 30.2 °F 19.8 °F 17.6 °F 60% 30.21 in 10.0 mi NW 13.8 mph 20.7 mph N/A   Overcast
7:53 PM 30.0 °F 19.1 °F 17.1 °F 59% 30.24 in 10.0 mi NW 15.0 mph 25.3 mph N/A   Overcast
8:53 PM 28.0 °F 19.3 °F 14.0 °F 56% 30.28 in 10.0 mi NNW 9.2 mph 21.9 mph N/A   Overcast
9:53 PM 27.0 °F 18.0 °F 14.0 °F 58% 30.32 in 10.0 mi North 9.2 mph 27.6 mph N/A   Overcast
10:53 PM 24.1 °F 15.2 °F 14.0 °F 65% 30.36 in 10.0 mi NNW 8.1 mph - N/A   Partly Cloudy
11:53 PM 23.0 °F 14.7 °F 10.9 °F 60% 30.40 in 10.0 mi Variable 6.9 mph - N/A   Clear